TimeCDT,TemperatureF,Dew PointF,Humidity,Sea Level PressureIn,VisibilityMPH,Wind Direction,Wind SpeedMPH,Gust SpeedMPH,PrecipitationIn,Events,Conditions,WindDirDegrees,DateUTC
12:14 AM,77.0,73.4,89,30.04,10.0,ESE,3.5,-,N/A,,Mostly Cloudy,110,2013-06-13 05:14:00
12:51 AM,77.0,73.9,90,29.97,10.0,SE,5.8,-,N/A,,Scattered Clouds,130,2013-06-13 05:51:00
1:32 AM,77.0,75.2,94,30.02,9.0,SE,6.9,-,N/A,,Mostly Cloudy,140,2013-06-13 06:32:00
1:51 AM,77.0,75.0,94,29.97,9.0,SE,4.6,-,N/A,,Mostly Cloudy,130,2013-06-13 06:51:00
2:51 AM,77.0,75.0,94,29.97,9.0,SE,6.9,-,N/A,,Mostly Cloudy,140,2013-06-13 07:51:00
3:51 AM,78.1,75.0,90,29.97,10.0,SSE,9.2,-,N/A,,Mostly Cloudy,160,2013-06-13 08:51:00
4:51 AM,78.1,75.0,90,29.98,10.0,South,4.6,-,N/A,,Mostly Cloudy,170,2013-06-13 09:51:00
5:33 AM,78.8,75.2,89,30.03,10.0,South,5.8,-,N/A,,Mostly Cloudy,170,2013-06-13 10:33:00
5:51 AM,78.1,75.0,90,29.98,10.0,SSE,6.9,-,N/A,,Mostly Cloudy,160,2013-06-13 10:51:00
6:51 AM,78.1,75.0,90,29.99,8.0,SSE,5.8,-,N/A,,Overcast,150,2013-06-13 11:51:00
7:33 AM,78.8,75.2,89,30.05,9.0,SSE,6.9,-,N/A,,Mostly Cloudy,160,2013-06-13 12:33:00
7:51 AM,78.1,75.0,90,30.01,9.0,SSE,5.8,-,N/A,,Mostly Cloudy,150,2013-06-13 12:51:00
8:51 AM,79.0,75.9,90,30.01,8.0,SE,5.8,-,N/A,,Mostly Cloudy,130,2013-06-13 13:51:00
9:34 AM,82.4,75.2,79,30.08,10.0,SSE,6.9,-,N/A,,Mostly Cloudy,160,2013-06-13 14:34:00
9:51 AM,81.0,75.0,82,30.03,10.0,South,6.9,-,N/A,,Mostly Cloudy,170,2013-06-13 14:51:00
10:51 AM,84.0,73.9,72,30.03,10.0,SSE,11.5,-,N/A,,Mostly Cloudy,150,2013-06-13 15:51:00
11:51 AM,86.0,75.0,70,30.01,10.0,SE,4.6,-,N/A,,Mostly Cloudy,130,2013-06-13 16:51:00
12:51 PM,88.0,73.9,63,29.99,10.0,SE,5.8,-,N/A,,Mostly Cloudy,130,2013-06-13 17:51:00
1:51 PM,86.0,72.0,63,29.97,10.0,South,4.6,-,N/A,,Mostly Cloudy,170,2013-06-13 18:51:00
2:51 PM,81.0,71.1,72,29.98,10.0,South,27.6,36.8,N/A,Thunderstorm,Thunderstorm,170,2013-06-13 19:51:00
3:01 PM,77.0,69.8,78,30.04,5.0,South,27.6,34.5,0.00,Rain-Thunderstorm,Light Thunderstorms and Rain,170,2013-06-13 20:01:00
3:04 PM,75.2,68.0,78,30.05,0.8,South,23.0,34.5,0.00,Rain-Thunderstorm,Thunderstorms and Rain,170,2013-06-13 20:04:00
3:06 PM,75.2,69.8,83,30.06,0.5,SSE,24.2,34.5,0.02,Rain-Thunderstorm,Thunderstorms and Rain,150,2013-06-13 20:06:00
3:15 PM,73.4,69.8,88,30.04,2.0,ESE,8.1,32.2,0.09,Rain-Thunderstorm,Heavy Thunderstorms and Rain,110,2013-06-13 20:15:00
3:27 PM,73.4,71.6,94,30.03,5.0,Calm,Calm,-,0.16,Rain-Thunderstorm,Heavy Thunderstorms and Rain,0,2013-06-13 20:27:00
3:45 PM,75.2,71.6,89,30.02,10.0,East,4.6,-,0.20,Rain,Light Rain,80,2013-06-13 20:45:00
3:51 PM,75.0,71.1,87,29.97,10.0,ENE,4.6,-,0.20,Rain,Light Rain,70,2013-06-13 20:51:00
4:51 PM,75.9,71.1,85,29.94,10.0,Calm,Calm,-,0.01,Rain,Light Rain,0,2013-06-13 21:51:00
5:51 PM,77.0,73.0,88,29.96,10.0,ESE,5.8,-,0.00,Rain,Light Rain,110,2013-06-13 22:51:00
6:51 PM,77.0,73.0,88,29.95,10.0,Calm,Calm,-,0.00,Rain,Light Rain,0,2013-06-13 23:51:00
7:51 PM,77.0,72.0,84,29.92,10.0,South,3.5,-,0.00,,Overcast,180,2013-06-14 00:51:00
8:51 PM,75.9,72.0,87,29.93,10.0,South,3.5,-,N/A,,Overcast,190,2013-06-14 01:51:00
9:51 PM,75.9,72.0,87,29.92,10.0,Calm,Calm,-,N/A,,Overcast,0,2013-06-14 02:51:00
10:38 PM,75.2,73.4,94,29.99,10.0,West,4.6,-,N/A,,Overcast,260,2013-06-14 03:38:00
10:51 PM,75.9,72.0,87,29.94,10.0,West,4.6,-,N/A,,Overcast,280,2013-06-14 03:51:00
11:24 PM,75.2,73.4,94,29.99,10.0,WNW,4.6,-,N/A,,Mostly Cloudy,300,2013-06-14 04:24:00
11:51 PM,75.9,72.0,87,29.94,10.0,Calm,Calm,-,N/A,,Mostly Cloudy,0,2013-06-14 04:51:00